Regional Weather Roundup
Issued by NWS Wakefield, VA

Home | Current Version | Previous Version | Graphics & Text | Print | Product List | Glossary On
Versions: 1 2 3 4 5 6 7 8 9 10 11 12 13 14 15 16 17 18 19 20 21 22 23 24 25 26 27
000
ASUS41 KAKQ 230015
RWRAKQ

REGIONAL WEATHER ROUNDUP
NATIONAL WEATHER SERVICE WAKEFIELD VA
700 PM EST WED NOV 22 2017

Note: "fair" indicates few or no clouds below 12,000 feet with no
significant weather and/or obstructions to visibility. * = Denotes
station may not report precipitation (e.g., rain,snow,etc.),
thunder or fog.

VAZ042-051-052>054-056-230100-
NORTHERN VIRGINIA

CITY           SKY/WX    TMP DP  RH WIND       PRES   REMARKS
WASH NATIONAL  PTCLDY    44  25  47 NW13      30.15R
DULLES         PTCLDY    40  25  55 NW10      30.15R
FORT BELVOIR   PTCLDY    42  25  50 NW9       30.15R
QUANTICO       NOT AVBL
FREDERICKSBRG* PTCLDY    44  29  57 N10G17    30.15R
STAFFORD*      PTCLDY    40  26  56 N15G22    30.20R
WARRENTON      NOT AVBL
CULPEPER*      PTCLDY    41  23  49 N9        30.17R
MANASSAS*      PTCLDY    40  24  53 NW9       30.17R
LEESBURG*      CLEAR     41  28  60 N7        30.16R
WINCHESTER     CLEAR     34  23  64 NW12G18   30.16S
FRONT ROYAL*   PTCLDY    36  23  60 N6        30.16R
LURAY*         PTCLDY    37  27  65 NW12      30.16R
$$

VAZ048-049-060>072-079>083-230100-
CENTRAL AND SOUTH CENTRAL VIRGINIA

CITY           SKY/WX    TMP DP  RH WIND       PRES   REMARKS
RICHMOND       CLEAR     46  27  47 N13       30.11R
CHESTERFIELD*  NOT AVBL
PETERSBURG*    CLEAR     48 -22   5 N10G16    30.11R
HANOVER        CLEAR     45  25  45 NW8       30.13R
TAPPAHANNOCK*    N/A    N/A N/A N/A MISG        N/A
QUINTON*       FAIR      46  28  49 N6        30.11R
CHARLOTTSVILLE CLEAR     41  24  51 CALM      30.15R
GORDONSVILLE*  CLEAR     41  24  51 CALM      30.15R
ORANGE*        PTCLDY    39  25  56 CALM      30.15R
LOUISA*        CLEAR     41  24  50 NW7       30.18R
BUMPASS*       FAIR      43  25  48 NW5       30.14R
FARMVILLE*     CLEAR     47  28  46 N6        30.10R
CREWE*         FAIR      48  26  42 N7G16     30.10R
FORT PICKETT*  NOT AVBL
CHASE CITY*    FAIR      46  31  56 N3        30.09R
CLARKSVILLE*   FAIR      50  28  43 NW5       30.08R
SOUTH HILL*    CLOUDY    49  30  49 N9        30.14R
LAWRENCEVILLE* FAIR      50  29  43 N5        30.08R
EMPORIA*       CLOUDY    50  32  50 NW6       30.09R
$$

VAZ088>098-230100-
SOUTHEAST VIRGINIA

CITY           SKY/WX    TMP DP  RH WIND       PRES   REMARKS
NORFOLK        CLEAR     52  34  50 N16G23    30.07R
VIRGINIA BEACH PTCLDY    51  32  48 N18       30.06R
NORFOLK NAVAL  PTCLDY    51  33  50 N15G26    30.10R
WEST POINT*    CLEAR     46  29  52 NW3       30.12R
SALUDA*        FAIR      47  34  59 N12G20    30.09R
NEWPORT NEWS   PTCLDY    49  31  49 N9G18     30.09R
LANGLEY AFB    PTCLDY    49  33  52 N18       30.08R
FORT EUSTIS    PTCLDY    49  32  51 N13G20    30.07R
WILLIAMSBURG*  CLEAR     48  34  57 N8G16     30.10R
HR EXEC AP*    NOT AVBL
FRANKLIN*      PTCLDY    51  34  52 N9        30.09R
US460-WAKEFLD  CLOUDY    49  33  54 VRB7      30.09R
$$

VAZ020-022-025-037-045-230100-
WEST CENTRAL AND SOUTHWEST VIRGINIA

CITY           SKY/WX    TMP DP  RH WIND       PRES   REMARKS
STAUNTON*      PTCLDY    35  22  59 NW7       30.17R
WAYNESBORO*    CLEAR     35  22  58 NW9       30.13S
HOT SPRINGS VA CLOUDY    28  19  69 NW17G23   30.05F WCI  15
LYNCHBURG      CLEAR     44  21  40 NW7       30.11R
DANVILLE       CLEAR     47  27  45 N10       30.10R
SOUTH BOSTON*  FAIR      49  24  38 N7        30.11R
MARTINSVILLE   CLEAR     44  22  42 N9        30.15R
ROANOKE        CLEAR     39  24  55 NW12      30.18R
BLACKSBURG     CLEAR     35  25  68 CALM      30.17R
DUBLIN*        CLEAR     37  26  64 N8        30.16R
MARION*        CLEAR     37  22  54 W5        30.15R
HILLSVILLE*    CLEAR     36  25  63 N7        30.10R
RICHLANDS*     FAIR      33  24  69 N6        30.16R
WISE*          CLEAR     32  27  80 N5        30.16S
ABINGDON*      CLEAR     39  26  58 N5        30.15R
$$

MDZ021>025-VAZ099-100-230100-
SOUTHERN MARYLAND AND THE DELMARVA PENINSULA

CITY           SKY/WX    TMP DP  RH WIND       PRES   REMARKS
PATUXENT RIVER PTCLDY    46  31  55 NW25G32   30.10R
BAY BRIDGE APT CLOUDY    46  28  49 NW13      30.11R
LEONARDTOWN    CLEAR     45  30  57 NW7       30.13R
DOVER          CLOUDY    46  37  70 NW10      30.08R
GEORGETOWN     CLEAR     46  30  53 N7        30.07R
EASTON         CLOUDY    46  30  53 N7        30.13R
CAMBRIDGE      CLEAR     46  30  53 NW10G20   30.10R
SALISBURY      CLEAR     44  32  62 NW10      30.07R
OCEAN CITY     CLEAR     45  32  60 N13       30.06R
WALLOPS ISLAND CLEAR     46  32  58 NW12      30.08R
ACCOMACK*      CLEAR     48  33  55 N9G23     30.08R
$$

NCZ012>017-030>032-230100-
NORTH CENTRAL AND EASTERN NORTH CAROLINA

CITY           SKY/WX    TMP DP  RH WIND       PRES   REMARKS
ROANOKE RAPIDS FAIR      48  37  66 NW3       30.06R
RALEIGH        MOCLDY    52  25  35 VRB5      30.09R
ELIZABETH CITY PTCLDY    53  42  66 N12       30.05R
AHOSKIE*         N/A     47  38  70 CALM      30.06R HAZE
EDENTON*       PTCLDY    52  47  85 CALM      30.05R
CURRITUCK*     PTCLDY    53  39  60 N12G18    30.06R
KILL DEVIL HLS PTCLDY    55  38  53 N8G16     30.03R
MANTEO         PTCLDY    54  41  60 NE13      30.04R
CAPE HATTERAS  CLEAR     57  47  69 NE8G16    30.03R
TARBORO*       NOT AVBL
GOLDSBORO      CLEAR     55  34  44 N3        30.04R
WASHINGTON     CLEAR     51  46  83 CALM      30.05R
GREENVILLE     CLEAR     50  37  62 CALM      30.07R
NEW BERN       MOCLDY    50  48  93 CALM      30.06R
WILMINGTON     CLEAR     57  41  55 N8        30.04R
$$

VAZ048-230100-
ELSEWHERE

CITY           SKY/WX    TMP DP  RH WIND       PRES   REMARKS
HARRISBURG PA  MOCLDY    40  22  48 N16       30.13R
BALTIMORE      PTCLDY    41  26  55 NW8       30.12R
ANNAPOLIS      PTCLDY    46  29  51 NW12      30.12R
ANDREWS AFB    PTCLDY    42  25  50 NW12      30.12R
PHILADELPHIA   PTCLDY    44  24  45 NW16G25   30.08R
HENDERSON NC   PTCLDY    49  26  41 CALM      30.07S
GREENSBORO     CLOUDY    49  24  37 N7        30.09R
ROCKY MOUNT    PTCLDY    47  39  74 CALM      30.06R
$$

VAZ100-230100-
MARINE

STATION/POSITION TIME  TEMP    WIND        PRES    WAVE   SWELL
                       AIR SEA DIR/SP/G            HT/PER HT/PER
                 (UTC) (F)     (DEG/KT/KT) (MB)    (FT/S) (FT/S)
BRANDYWINE LGT   2348          340/ 29/ 33 1017.5R
CAPE MAY NJ      2348   47 51  330/ 23/ 31 1016.6R
LEWES DE         2348   48 52  330/ 25/ 30 1017.5R
15NM E FENWICK I 2350   51 58  320/ 25/ 31 1016.5R   6/ 5   2/10
OCEAN-CITY-INLET 2348   48 54  350/ 13/ 16 1018.0R
WACHAPREAGUE VA  2348   48 53  340/  7/ 15 1018.4R
THOMAS POINT MD  0000   45 52  320/ 14/ 16   N/A
GOOSES REEF MD   2350   47     360/ 19/ 25 1009.6F
COVE POINT MD    2348   47     340/ 25/ 32 1020.0R
SOLOMONS ISLAND  2348   46 53  320/ 17/ 21 1019.2R
BISHOPS HEAD MD  2348   46 51  320/  9/ 10 1019.2R
PINEY POINT MD   2348          360/ 22/ 25   N/A
POTOMAC MD       2350   48     340/ 19/ 23 1018.1R
CAMBRIDGE MD     2348                      1019.8R
LEWISETTA VA     2348   48 52  360/ 14/ 18 1019.1R
RAPPAHANNOCK LGT 2348          340/ 26/ 30 1018.9R
STINGRAY PT      2350   50      10/ 16/ 17 1019.0R
YORK RVR RNG VA  2348   51      10/ 19/ 23 1019.0R
YORKTOWN VA      2348   50 54  340/ 12/ 16 1018.6R
JAMESTOWN VA     2350           10/ 10/ 14   N/A
DOMINION TERM VA 2348   51      70/  3/  7 1018.8R
KIPTOPEKE VA     2348      54   20/ 14/ 18   N/A
CAPE HENRY VA    2348   53     360/ 26/ 30   N/A
WILLOUBY STN VA  2348          360/ 19/ 21 1018.2R
S CRANEY ISL VA  2348   52     360/ 17/ 20 1018.2R
CAPE HENRY BUOY  0000      58                N/A     6/ 5
1ST LANDING BUOY 2350   52      20/ 23/ 27 1018.2R
CAPE CHARLES BUO 2351      59                N/A     4/ 5
64NM E OF VA BCH 2350   56 62  330/ 23/ 29 1016.2R   9/ 7   2/14
DUCK PIER NC     2348   56 60   10/ 23/ 28 1016.2R
44100 DUCK FRF   2345      61                N/A     7/ 6   2/11
44056 DUCK FRF   0000      61                N/A     6/ 6
OREGON INLET NC  2348          350/ 14/ 18 1016.9R
HATTERAS NC      2348   58 60   20/ 16/ 18 1016.5R
DIAMOND SHLS NC  2350   62 74   10/ 19/ 25 1016.6R   7/ 9   3/ 9
CAPE LOOKOUT NC  0000           30/ 13/ 14 1017.3R
$$




USA.gov is the U.S. government's official web portal to all federal, state and local government web resources and services.